sat.trackr.live / text

‹ back to catalog

QIANFAN-204

NORAD 69803 · 2026-153D

PAYLOAD ACTIVE UNKNOWN

§ Identity

Operator
Country
PRC
Launch date
2026-07-04
Launch site
TAISC
Launch vehicle
Mass (kg)
RCS (m²)

External: N2YO · Heavens-Above · Gunter

§ Orbital elements

Epoch: 2026-09-20T01:13:29.500032Z

Period
102.48 min
Inclination
88.9978°
Eccentricity
0.0005673
Mean motion
14.05218033 rev/d
Perigee alt
871.7 km
Apogee alt
879.9 km
Semi-major
7,253.9 km
B*
6.6419e-5
RAAN
351.5025°
Arg perigee
341.2955°
Mean anomaly
18.8017°
Rev number
1,099

§ Raw data

QIANFAN-2041 69803U 26153D   26263.05103588  .00000121  00000+0  66419-4 0  99952 69803  88.9978 351.5025 0005673 341.2955  18.8017 14.05218033 10999

JSON: /api/v1/satellites/69803 · /tle

For live sub-satellite position, see the globe view (requires WebGL).

§ Visibility from observer

Set your observer location to see the next 7 days of passes ≥ 10°. The values pass through the URL so the page stays shareable.

No JS? Fill the form by hand. The geolocation button needs JavaScript.